Flag for U.S.A. Weather past 2 weeks in Norfolk, Virginia, U.S.A.

Now
79 °F

Mostly cloudy.


Feels Like: 82 °F
Forecast: 72 / 81 °F
Wind: 14 mph from East

Location: Norfolk Naval Air Station

Current Time: Aug 23, 2014 at 2:02:28 PM

Latest Report: Aug 23, 2014 at 12:59 PM


Visibility: 10 mi

Pressure: 30.01 "Hg

Humidity: 72%

Dew point: 69 °F

Location of NorfolkLocation

Historic Weather in Norfolk — Graph

°F

Norfolk temperature yesterday

Maximum temperature yesterday: 85 °F (at 10:59 AM)
Minimum temperature yesterday: 77 °F (at 10:59 PM)
Average temperature yesterday: 81 °F

Past Weeks' High & Low Weather Summary

 TemperatureHumidityPressure
High89 °F (Aug 21, 1:59 PM)94% (Aug 19, 4:59 AM)30.15 "Hg (Aug 19, 4:59 AM)
Low69 °F (Aug 11, 3:59 AM)29% (Aug 14, 1:59 PM)29.76 "Hg (Aug 13, 2:59 AM)
Average78 °F71%29.98 "Hg
* Reported Aug 8 12:59 PM — Aug 23 12:59 PM, Norfolk, Weather by CustomWeather, © 2014

Note: Actual official high and low records may vary slightly from our data, if they occured in-between our weather recording intervals... More about our weather records

Advertising

Norfolk weather history for previous 24 hours

 ConditionsComfort  
Time TempWeatherWind HumidityBarometerVisibility
12:59 PM
Aug 23
79 °FMostly cloudy.14 mph72%30.01 "Hg10 mi
11:59 AM78 °FCloudy.12 mph74%30.01 "Hg10 mi
10:59 AM78 °FCloudy.15 mph76%30.01 "Hg10 mi
9:59 AM78 °FMostly cloudy.12 mph76%30.00 "Hg10 mi
8:59 AM78 °FBroken clouds.14 mph79%29.98 "Hg10 mi
7:59 AM77 °FBroken clouds.12 mph82%29.98 "Hg10 mi
6:59 AM77 °FMostly cloudy.8 mph82%29.96 "Hg10 mi
5:59 AM76 °FPartly cloudy.8 mph82%29.95 "Hg10 mi
4:59 AM76 °FPassing clouds.7 mph82%29.95 "Hg10 mi
3:59 AM76 °FPartly cloudy.8 mph85%29.95 "Hg10 mi
2:59 AM77 °FPartly cloudy.7 mph82%29.96 "Hg10 mi
1:59 AM76 °FPartly cloudy.7 mph85%29.97 "Hg10 mi
12:59 AM77 °FOvercast.9 mph82%29.98 "Hg10 mi
11:59 PM
Aug 22
77 °FPassing clouds.8 mph82%29.98 "Hg10 mi
10:59 PM77 °FPartly cloudy.8 mph85%29.98 "Hg10 mi
9:59 PM78 °FMostly cloudy.7 mph84%29.96 "Hg9 mi
8:59 PM79 °FPartly cloudy.8 mph77%29.97 "Hg10 mi
7:59 PM80 °FBroken clouds.10 mph74%29.96 "Hg9 mi
6:59 PM82 °FBroken clouds.9 mph65%29.95 "Hg10 mi
5:59 PM83 °FCloudy.10 mph63%29.95 "Hg10 mi
4:59 PM82 °FCloudy.6 mph72%29.95 "Hg10 mi
3:59 PM82 °FCloudy.12 mph67%29.95 "Hg10 mi
2:59 PM83 °FCloudy.9 mph63%29.96 "Hg10 mi
Weather by CustomWeather, © 2014

See weather overviewHow to use our weather pages